Regional Weather Roundup
Issued by NWS

Home | Current Version | Previous Version | Graphics & Text | Print | Product List | Glossary Off
Versions: 1 2 3 4 5 6 7 8 9 10 11 12 13 14 15 16 17 18 19 20 21 22 23 24 25 26 27 28 29 30 31 32 33 34 35 36 37 38 39 40 41 42 43 44 45 46 47 48 49 50

000
ASUS43 KMKX 240511
RWRWI

WISCONSIN REGIONAL WEATHER ROUNDUP
NATIONAL WEATHER SERVICE MILWAUKEE/SULLIVAN WI
1100 PM CST THU FEB 23 2017

NOTE: "FAIR" INDICATES FEW OR NO CLOUDS BELOW 12,000 FEET WITH NO
SIGNIFICANT WEATHER AND/OR OBSTRUCTIONS TO VISIBILITY.

WIZ001-002-006>008-014>016-023>028-240600-
NORTHWEST WISCONSIN

CITY           SKY/WX    TMP DP  RH WIND       PRES   REMARKS
SUPERIOR ARPT  CLOUDY    26  16  66 NE7       30.02R WCI  18
ASHLAND        CLOUDY    27  18  69 N9        29.97R WCI  18
HAYWARD        CLOUDY    27  19  72 N7        29.95S WCI  19
SIREN          CLOUDY    28  20  74 N9        29.96R WCI  19
CUMBERLAND     CLOUDY    28  21  74 NE12      29.92R WCI  18
RICE LAKE      CLOUDY    29  24  80 N14       29.93R WCI  19
CHETEK         CLOUDY    30  23  74 NE6       29.92R WCI  24
LADYSMITH      CLOUDY    30  24  79 NE9       29.92S WCI  22
EAU CLAIRE     CLOUDY    33  25  72 NE12G21   29.86F WCI  24
MENOMONIE      CLOUDY    33  26  76 N13       29.89S WCI  23
NEW RICHMOND   CLOUDY    29  23  76 NE13      29.92R WCI  19
OSCEOLA        CLOUDY    30  23  77 N8        29.96F WCI  22
$$

WIZ003>005-009-010-017-018-240600-
NORTH CENTRAL WISCONSIN

CITY           SKY/WX    TMP DP  RH WIND       PRES   REMARKS
MANITOWISH WTR CLOUDY    25  25 100 CALM      29.91S
ARBOR VITAE    CLOUDY    28  25  87 N5          N/A  WCI  23
WOODRUFF       CLOUDY    28  25  87 N5          N/A  WCI  23
RHINELANDER    CLOUDY    29  22  75 VRB5      29.89R WCI  24
EAGLE RIVER    CLOUDY    26  22  82 NE7       29.88F WCI  19
LAND O LAKES   CLOUDY    25  24  93 CALM      29.92R
PHILLIPS       CLOUDY    28  24  86 NE12      29.89S WCI  17
TOMAHAWK       CLOUDY    29  22  75 N8        29.89R WCI  21
MEDFORD        CLOUDY    30  25  80 NE12      29.86S WCI  21
MERRILL        NOT AVBL
$$

WIZ029-030-035-036-043>047-240600-
CENTRAL WISCONSIN

CITY           SKY/WX    TMP DP  RH WIND       PRES   REMARKS
WAUSAU         CLOUDY    33  26  75 NE5       29.85R WCI  29
MOSINEE        FLURRIES  32  32 100 NE8       29.86S WCI  25
MARSHFIELD     LGT SNOW  34  27  75 NE10      29.84R WCI  26
STEVENS POINT  CLOUDY    32  24  72 NE10G17   29.85S WCI  24
WAUPACA        CLOUDY    36  26  68 NE12G20   29.84F WCI  28
WAUTOMA        CLOUDY    35  27  72 NE15G23   29.81F WCI  25
WISC RAPIDS    CLOUDY    36  27  69 NE13G18   29.82F WCI  27
CAMP DOUGLAS   FLURRIES  37  30  75 NE10      29.79F WCI  30
$$

WIZ011>013-019>022-031-037>040-048>050-240600-
NORTHEAST WISCONSIN

CITY           SKY/WX    TMP DP  RH WIND       PRES   REMARKS
ANTIGO         CLOUDY    31  26  83 NE12      29.85F WCI  22
SHAWANO        CLOUDY    35  28  77 E12       29.89F WCI  27
OCONTO         CLOUDY    33  26  74 E9        29.91F WCI  25
STURGEON BAY   CLOUDY    33  24  69 NE10      29.93S WCI  25
GREEN BAY      CLOUDY    35  29  78 NE16      29.87F WCI  25
MANITOWOC      LGT SNOW  33  31  92 NE10G20   29.87F FOG     WCI  25
APPLETON       CLOUDY    34  25  69 NE15G22   29.83F WCI  24
CLINTONVILLE   CLOUDY    34  27  75 E12G17    29.87F WCI  25
OSHKOSH        FLURRIES  33  29  85 NE16      29.81F WCI  23
$$

WIZ032>034-041-042-053>061-240600-
SOUTHWEST WISCONSIN

CITY           SKY/WX    TMP DP  RH WIND       PRES   REMARKS
LA CROSSE      LGT RAIN  37  33  85 NE12      29.76F WCI  29
SPARTA         LGT RAIN  35  32  90 NE12G22   29.79F WCI  26
VIROQUA        CLOUDY    33  33 100 E17G24    29.72F WCI  22
BOSCOBEL       LGT RAIN  34  32  92 NE15G23   29.72F FOG     WCI  24
PRAIRIE DU CHI RAIN      34  33  96 NE12G30   29.68F WCI  25
PLATTEVILLE    CLOUDY    35  35 100 NE22G29   29.66F WCI  23
$$

WIZ056-057-062-063-064-067-068-240600-
SOUTH CENTRAL WISCONSIN

CITY           SKY/WX    TMP DP  RH WIND       PRES   REMARKS
REEDSBURG      LGT SNOW  32  32 100 NE13G18   29.77S WCI  22
BARABOO/DELLS  LGT SNOW  32  31  96 NE16G29   29.75F VSB 3/4 WCI  21
LONE ROCK      LGT RAIN  35  31  85 NE8       29.77R FOG     WCI  29
MINERAL POINT  LGT RAIN  34  34 100 NE17G24   29.69F WCI  23
MADISON        LGT RAIN  33  30  88 NE25G31   29.74F WCI  20
MIDDLETON      CLOUDY    34  34 100 NE16G26   29.74F WCI  24
WATERTOWN      MIX PCPN  32  32 100 NE13G21   29.76F WCI  23
MONROE         CLOUDY    32  32 100 NE18G31   29.68F WCI  20
JANESVILLE     DRIZZLE   34  34 100 NE17G25   29.69F WCI  23
$$

WIZ051-052-058>065-066-070>072-240600-
SOUTHEAST WISCONSIN

CITY           SKY/WX    TMP DP  RH WIND       PRES   REMARKS
MILWAUKEE      LGT RAIN  37  33  85 N18G28    29.79R FOG     WCI  27
WAUKESHA       LGT RAIN  32  32 100 NE15G21   29.80R WCI  22
MILWAUKEE/TIMM HVY RAIN  34  32  93 NE16G31   29.81R WCI  23
RACINE         RAIN      37  34  89 N21       29.78R WCI  26
KENOSHA        LGT RAIN  37  35  92 NE16G22   29.75R WCI  28
FOND DU LAC    LGT SNOW  33  30  88 NE17      29.80F FOG     WCI  22
SHEBOYGAN      LGT SNOW  33  30  88 NE25G31   29.82F FOG     WCI  20
WEST BEND      LGT SNOW  32  32 100 NE18      29.79F WCI  20
JUNEAU         FLURRIES  32  31  95 NE13G21   29.79F WCI  22
$$

LSZ147-162-240600-
LAKE SUPERIOR

STATION/POSITION TIME  TEMP    WIND        PRES    WAVE
                       AIR SEA DIR/SP/G            HT/PER
                 (UTC) (F)     (DEG/KT/KT) (MB)    (FT/S)
DEVILS ISLAND    0500   29      10/ 19/ 21 1016.4R
PORT WING        0440   29      20/ 16/ 19 1015.6R
SAXON HARBOR     0440   32     360/  9/ 13 1015.2R
$$

LMZ867-665-643>646-240600-
LAKE MICHIGAN

STATION/POSITION TIME  TEMP    WIND        PRES    WAVE
                       AIR SEA DIR/SP/G            HT/PER
                 (UTC) (F)     (DEG/KT/KT) (MB)    (FT/S)
CHAMBERS ISLAND  0440   33      30/ 14/ 16 1013.2F
NORTHPORT PIER   0500   33      40/  9/ 18 1013.9
SISTER BAY       0420   33      30/  6/ 10   N/A
KEWAUNEE LAKESHO 0448   36      30/ 16/ 23 1012.5S
SHEBOYGAN LAKESH 0500   33      20/ 28/ 31 1010.4F
PORT WASHINGTON  0440   35      30/ 19/ 24 1010.8S
MILWAUKEE LAKESH 0450   36      30/ 23/ 29   N/A
KENOSHA   LAKESH 0500   37      20/ 18/ 21 1007.8
$$

TC  - TEMPERATURE IN CELSIUS
VSB - VISIBILITY IN STATUTE MILES
WCI - WIND CHILL INDEX
HX  - HEAT INDEX




USA.gov is the U.S. government's official web portal to all federal, state and local government web resources and services.